TimeCST,TemperatureF,Dew PointF,Humidity,Sea Level PressureIn,VisibilityMPH,Wind Direction,Wind SpeedMPH,Gust SpeedMPH,PrecipitationIn,Events,Conditions,WindDirDegrees,DateUTC
12:52 AM,10.0,6.1,84,30.46,10.0,Calm,Calm,-,N/A,,Clear,0,2013-01-15 06:52:00
1:52 AM,10.0,5.0,80,30.46,10.0,Calm,Calm,-,N/A,,Clear,0,2013-01-15 07:52:00
2:52 AM,10.0,5.0,80,30.45,10.0,Calm,Calm,-,N/A,,Clear,0,2013-01-15 08:52:00
3:52 AM,8.6,3.2,79,30.41,10.0,Calm,Calm,-,N/A,,Clear,0,2013-01-15 09:52:00
4:52 AM,6.8,3.2,85,30.39,10.0,Calm,Calm,-,N/A,,Clear,0,2013-01-15 10:52:00
5:52 AM,6.1,1.9,83,30.42,10.0,Calm,Calm,-,N/A,,Clear,0,2013-01-15 11:52:00
6:52 AM,6.1,1.9,83,30.43,10.0,Calm,Calm,-,N/A,,Clear,0,2013-01-15 12:52:00
7:52 AM,6.1,3.0,87,30.43,10.0,Calm,Calm,-,N/A,,Clear,0,2013-01-15 13:52:00
8:52 AM,10.9,7.0,84,30.46,10.0,Calm,Calm,-,N/A,,Clear,0,2013-01-15 14:52:00
9:52 AM,17.1,12.9,84,30.44,10.0,Calm,Calm,-,N/A,,Clear,0,2013-01-15 15:52:00
10:52 AM,21.9,14.0,72,30.41,8.0,Calm,Calm,-,N/A,,Clear,0,2013-01-15 16:52:00
11:52 AM,26.1,12.9,58,30.38,10.0,SSE,5.8,-,N/A,,Clear,150,2013-01-15 17:52:00
12:52 PM,28.0,10.9,49,30.34,10.0,SSE,4.6,-,N/A,,Clear,150,2013-01-15 18:52:00
1:52 PM,28.9,12.9,51,30.32,10.0,SSE,5.8,-,N/A,,Clear,160,2013-01-15 19:52:00
2:52 PM,28.0,12.0,51,30.32,10.0,SE,8.1,-,N/A,,Clear,140,2013-01-15 20:52:00
3:52 PM,28.0,10.9,49,30.32,10.0,SSW,3.5,-,N/A,,Clear,210,2013-01-15 21:52:00
4:52 PM,25.0,12.0,58,30.32,10.0,SW,4.6,-,N/A,,Scattered Clouds,220,2013-01-15 22:52:00
5:52 PM,23.0,12.9,65,30.29,10.0,Calm,Calm,-,N/A,,Partly Cloudy,0,2013-01-15 23:52:00
6:52 PM,18.0,12.9,81,30.27,10.0,Calm,Calm,-,N/A,,Clear,0,2013-01-16 00:52:00
7:52 PM,16.0,10.9,81,30.25,10.0,SSW,4.6,-,N/A,,Clear,200,2013-01-16 01:52:00
8:52 PM,14.0,9.0,80,30.22,9.0,SSW,3.5,-,N/A,,Clear,200,2013-01-16 02:52:00
9:52 PM,12.0,8.1,84,30.19,10.0,Calm,Calm,-,N/A,,Clear,0,2013-01-16 03:52:00
10:52 PM,14.0,8.1,77,30.17,10.0,SSW,3.5,-,N/A,,Clear,200,2013-01-16 04:52:00
11:52 PM,12.0,7.0,80,30.17,10.0,Calm,Calm,-,N/A,,Clear,0,2013-01-16 05:52:00